{"data":{"norad_id":60338,"epoch":"2026-09-21T02:28:24.944736Z","epoch_age_seconds":133475,"freshness":"FRESH","line1":"1 60338U 24136K   26264.10306649  .00000528  00000+0  26774-4 0  9999","line2":"2 60338  53.1583 246.5434 0001169  80.2600 279.8535 15.34393829119601","mean_motion":15.34393829,"eccentricity":0.0001169,"inclination_deg":53.1583,"raan_deg":246.5434,"arg_perigee_deg":80.26,"mean_anomaly_deg":279.8535,"bstar":2.6774e-5,"rev_number":11960,"period_min":93.848135516713,"perigee_km":461.92188541285,"apogee_km":463.52127814927,"semimajor_km":6840.8585817811,"source":"CELESTRAK","updated_at":"2026-09-22T09:00:49.220354Z"}}